FENGYUN 1C DEB

Satellite information

Favourite Embed

Satellite Type and Status

DEBRISIN ORBIT

Key statistics

Satellite FENGYUN 1C DEB at a glance.

Uptime

9554

Days in orbit

Revolutions

≈ 14.3

Per day

Orbit

SSO

Sun Synchronous Orbit

Inclination

99.0

Latest

Satellite identification and parameters

Extended collection of information and parameters for FENGYUN 1C DEB.

Object identification

Identified? True

Debris? True

Object name: FENGYUN 1C DEB

International designator: 1999-025CVW

Object number (NORAD): 32224

Object ID (CCSDS): 32224

Country: PEOPLES REPUBLIC OF CHINA (PRC)

Current information (Y/N): Y

RCS size: SMALL

Orbital parameters

Period: 100.443 minutes

Inclination: 98.961 deg

SMA: 7157.701 km

Apoapsis: 834.167 km

Periapsis: 724.965 km

RAAN: 128.0666 deg

Eccentricy: 0.0076283

Argument of periapsis: 184.0603 deg

Mean anomaly: 175.9971 deg

Mean motion: 14.33647601 rev/day

Mean motion (dot): 0.00000421 rev/day2

B* drag term: 0.00016367 1/REarth

Two-line elements (TLE)

Creation date: July 2, 2025, 5:47 p.m.

Reference frame: TEME

Reference center: EARTH

Epoch: July 2, 2025, 1:47 a.m. UTC

TLE line 0: 0 FENGYUN 1C DEB

TLE line 1: 1 32224U 99025CVW 25183.07460267 .00000421 00000-0 16367-3 0 9992

TLE line 2: 2 32224 98.9610 128.0666 0076283 184.0603 175.9971 14.33647601933789

Live tracking on map

Real-time ground track for satellite FENGYUN 1C DEB.

In-orbit conjunctions

A list of the most updated potential collisions computed for object FENGYUN 1C DEB.

Target Orbit TCA Probability of collision Miss distance Type
SL-12 R/B(AUX MOTOR) LEO 2024-11-29 08:13:00 0.0001122548 442.0 (m) ROCKET BODY
CZ-6A DEB LEO 2024-11-05 15:47:45 0.0001573357 987.0 (m) DEBRIS
COSMOS 1269 LEO 2024-10-17 17:46:28 0.0002610253 198.0 (m) PAYLOAD

Associated space launch

Chinese polar orbiting meteorological satellite

FENGYUN 1C DEB was lifted into orbit during the mission ‘Long March 4B | Feng Yun 1C’, on board a Long March 4B space rocket.

The launch took place on May 10, 1999, 1:33 a.m. from Launch Complex 7.

For more information about the launch, click the button.

Launch to space Long March 4B | Feng Yun 1C
Long March 4B | Feng Yun 1C

Agency: N/A

Status: Launch Successful

Launch date: May 10, 1999, 1:33 a.m. UTC

Rocket: Long March 4B

Launch pad: Launch Complex 7

Location: Taiyuan Satellite Launch Center, People's Republic of China

...

Latest news about this satellite

There are no fresh news available about this satellite. Check back as we update our databases every day.


Newsletter sign-up

Weekly statistics, charts and insights to help you stay on top of the space industry.